Location: Home
(42.5358°N, 72.7383°W)
Time: 13:05:27
(UTC-05:00)

Vanguard 3 - Visible Passes

Search period start: 06 December 2021 00:00
Search period end: 16 December 2021 00:00
Orbit: 508 x 3260 km, 33.4° (Epoch: 05 December)

Date Brightness Start Highest point End Pass type
(mag) Time Alt. Az. Time Alt. Az. Time Alt. Az.
06 Dec 10.8 01:11:40 31° ESE 01:11:40 31° ESE 01:23:16 10° E visible
06 Dec 10.2 03:16:14 45° SSW 03:22:15 55° SSE 03:38:56 10° E visible
06 Dec 10.1 05:20:47 15° WSW 05:38:03 62° S 05:52:00 10° ESE visible
07 Dec 11.4 00:01:40 14° E 00:01:40 14° E 00:04:35 10° E visible
07 Dec 10.4 02:06:13 47° SSE 02:06:13 47° SSE 02:22:50 10° E visible
07 Dec 10.1 04:10:45 35° WSW 04:21:10 62° S 04:37:09 10° E visible
07 Dec 10.1 06:17:58 10° W 06:36:36 56° SSW 06:49:17 10° SE visible
08 Dec 10.9 00:56:07 29° ESE 00:56:07 29° ESE 01:05:44 10° E visible
08 Dec 10.1 03:00:39 54° SSW 03:04:04 58° SSE 03:21:36 10° E visible
08 Dec 10.1 05:05:11 21° WSW 05:20:05 62° S 05:34:58 10° ESE visible
08 Dec 11.5 23:45:58 12° E 23:45:58 12° E 23:47:09 10° E visible
09 Dec 10.4 01:50:30 47° SE 01:50:30 47° SE 02:05:16 10° E visible
09 Dec 10.1 03:55:02 43° SW 04:03:02 64° S 04:19:55 10° ESE visible
09 Dec 10.2 05:59:48 10° W 06:18:41 55° SSW 06:32:16 10° SE visible
10 Dec 11.0 00:40:18 26° ESE 00:40:18 26° ESE 00:48:01 10° E visible
10 Dec 10.0 02:44:49 59° S 02:45:50 60° SSE 03:04:07 10° E visible
10 Dec 10.1 04:49:21 28° WSW 05:02:01 62° S 05:17:49 10° ESE visible
11 Dec 10.5 01:34:35 43° ESE 01:34:35 43° ESE 01:47:33 10° E visible
11 Dec 10.0 03:39:07 51° SW 03:44:52 64° S 04:02:32 10° ESE visible
11 Dec 10.3 05:43:38 14° W 06:00:39 53° SSW 06:15:06 10° SE visible
12 Dec 11.1 00:24:19 22° E 00:24:19 22° E 00:30:07 10° E visible
12 Dec 10.1 02:28:51 61° SSE 02:28:51 61° SSE 02:46:30 10° E visible
12 Dec 10.1 04:33:22 34° WSW 04:43:52 61° SSW 05:00:30 10° ESE visible
13 Dec 10.6 01:18:34 39° ESE 01:18:34 39° ESE 01:29:41 10° E visible
13 Dec 9.9 03:23:05 58° SW 03:26:40 64° S 03:45:01 10° ESE visible
13 Dec 10.3 05:27:36 19° W 05:42:29 52° SSW 05:57:47 10° SE visible
14 Dec 11.3 00:08:16 18° E 00:08:16 18° E 00:12:05 10° E visible
14 Dec 10.1 02:12:47 57° SE 02:12:47 57° SE 02:28:44 10° E visible
14 Dec 10.1 04:17:19 40° WSW 04:25:40 60° SSW 04:43:02 10° ESE visible
14 Dec 10.6 06:23:24 10° W 06:40:27 38° SW 06:54:01 10° SSE visible
15 Dec 10.8 01:02:30 33° ESE 01:02:30 33° ESE 01:11:40 10° E visible
15 Dec 9.9 03:07:01 63° SSW 03:08:27 64° S 03:27:21 10° ESE visible
15 Dec 10.3 05:11:33 24° W 05:24:16 49° SSW 05:40:15 10° SE visible
15 Dec 11.4 23:52:12 14° E 23:52:12 14° E 23:53:56 10° E visible
